Regional Weather Roundup
Issued by NWS

Home | Current Version | Previous Version | Text Only | Print | Product List | Glossary On
Versions: 1 2 3 4 5 6 7 8 9 10 11 12 13 14 15 16 17 18 19 20 21 22 23 24 25 26 27 28 29 30 31 32 33 34 35 36 37 38 39 40 41 42 43 44 45 46 47 48 49 50
000
ASUS46 KLOX 230912
RWRCA

SOUTHERN CALIFORNIA WEATHER ROUNDUP
NATIONAL WEATHER SERVICE OXNARD CALIFORNIA
200 AM PDT TUE SEP 23 2014

NOTE: "FAIR" INDICATES FEW OR NO CLOUDS BELOW 12,000 FEET WITH NO
SIGNIFICANT WEATHER AND/OR OBSTRUCTIONS TO VISIBILITY.

  -  STATIONS PRECEEDED BY AN ASTERISK (*) ARE NOT NWS OR FAA
     STATIONS AND ARE NOT SUBJECT TO NWS AND FAA QUALITY CONTROL.

CAZ041-042-087-231000-
LA AND ORANGE COUNTY COASTAL AREAS


CITY           SKY/WX    TMP DP  RH WIND       PRES   REMARKS
L.A. DOWNTOWN  CLEAR     66  61  84 CALM      29.95S
L.A. AIRPORT   CLEAR     67  61  82 E3        29.95S
LONG BEACH     CLEAR     67  63  87 CALM      29.95S

CITY           SKY/WX    TMP DP  RH WIND       PRES   REMARKS
AVALON           N/A     61 N/A N/A S5          N/A
FULLERTON      CLEAR     66  60  81 CALM      29.94S
*GETTY CENTER    N/A     66  55  68 NE3         N/A
HAWTHORNE      CLEAR     68  63  84 SE3       29.95S
*LEO CARRILLO    N/A     62  53  71 N6          N/A
*LOS ALAMITOS  FAIR      62  61  97 CALM      29.95S
*REDONDO BEACH   N/A     62  59  88 CALM      29.94S
SANTA ANA      CLEAR     70  63  78 CALM      29.95S
STA MONICA APT PTCLDY    65  60  84 NE3       29.95S
*UCLA            N/A     63  59  88 CALM      29.93S

$$

CAZ547-548-048-231000-
LA COUNTY VALLEYS AND INLAND EMPIRE


CITY           SKY/WX    TMP DP  RH WIND       PRES   REMARKS
BURBANK        CLEAR     66  60  81 CALM      29.96S
VAN NUYS       CLEAR     67  60  78 CALM      29.96S

CITY           SKY/WX    TMP DP  RH WIND       PRES   REMARKS
CORONA AIRPORT SUNNY     63  58  83 CALM      29.97R
*CHATSWORTH      N/A     63  53  70 CALM      29.92S
CHINO          CLEAR     65  60  84 CALM      29.98R
MARCH AFB      CLEAR     62  55  77 W1        29.99S
*NORTHRIDGE      N/A     64  54  68 CALM        N/A
ONTARIO        CLEAR     68  59  73 W3        29.97R
*PASADENA        N/A     66  61  82 E1          N/A
RIVERSIDE      CLEAR     67  60  78 CALM      29.97R
SAN BERNARDINO NOT AVBL
*SAN GABRIEL     N/A     65  60  82 CALM      29.92S
*SAN RAFAEL HI   N/A     69  53  55 CALM        N/A
*SAUGUS          N/A     63  46  54 E6          N/A
*WHITEMAN AP   NOT AVBL
*WHITTIER HILL   N/A     66  61  85 N3          N/A
*WOODLAND HILL   N/A     61  55  82 S1          N/A

$$

CAZ054-055-231000-
LA AND SAN BERNARDINO COUNTY MOUNTAINS


CITY           SKY/WX    TMP DP  RH WIND       PRES   REMARKS
*ACTON           N/A     57  40  52 N7          N/A
*BIG BEAR AIRP SUNNY     41  32  70 CALM      30.30F
*BIG PINES       N/A     55  20  25 CALM        N/A
MT WILSON NWS    N/A     63  34  34 MISG        N/A
SANDBERG       CLEAR     68  41  37 W13       30.15S

$$

CAZ028-029-059-060-099-231000-
ANTELOPE VALLEY AND SURROUNDING AREAS


CITY           SKY/WX    TMP DP  RH WIND       PRES   REMARKS
LANCASTER      CLEAR     66  28  24 CALM      30.02S
PALMDALE       CLEAR     66  40  38 S5        30.03S
*POPPY PARK      N/A     69  26  20 W6          N/A

CITY           SKY/WX    TMP DP  RH WIND       PRES   REMARKS
29 PALMS       CLEAR     73  41  31 N3        30.05S
BARSTOW/DAGGET CLEAR     75  38  26 W10       29.99R
BISHOP         PTCLDY    60  38  43 N7        30.10R
CHINA LAKE     CLEAR     67  39  35 S8        29.99R
EDWARDS AFB    CLEAR     65  41  41 SW6       30.00S
MOJAVE         FAIR      68  41  37 W3        30.04R
NEEDLES        CLEAR     80  38  22 NW3       29.91S
VICTORVILLE    CLEAR     63  41  45 S3        30.06R

$$

CAZ039-040-231000-
VENTURA AND SANTA BARBARA COUNTY COAST


CITY           SKY/WX    TMP DP  RH WIND       PRES   REMARKS
CAMARILLO      CLEAR     65  56  72 CALM      29.94S
NWS OXNARD       N/A     60  56  85 CALM      29.94S
OXNARD AIRPORT CLEAR     61  58  90 CALM      29.94S
*POINT MUGU    CLEAR     63  59  87 CALM      29.95R
SBA APT/GOLETA CLEAR     64  61  90 E5        29.93S
*VENTURA         N/A     61  57  88 CALM      29.99S

$$

CAZ044-045-231000-
VENTURA COUNTY VALLEYS


CITY           SKY/WX    TMP DP  RH WIND       PRES   REMARKS
*SIMI VALLEY     N/A     61  56  83 CALM      29.90S
*OJAI            N/A     55  51  87 CALM      29.89S
*FILLMORE        N/A     57  53  86 CALM      29.85S

$$

CAZ053-231000-
VENTURA COUNTY MOUNTAINS


CITY           SKY/WX    TMP DP  RH WIND       PRES   REMARKS
*LOCKWOOD VLY    N/A     41  19  42 MISG        N/A
*ROSE VALLEY     N/A     43  36  75 MISG        N/A

$$

CAZ034-035-036-231000-
CENTRAL COAST AND SANTA YNEZ VALLEY


CITY           SKY/WX    TMP DP  RH WIND       PRES   REMARKS
SAN LUIS OBISP CLEAR     58  55  90 E5        29.97R
SANTA MARIA    CLOUDY    63  59  87 CALM      29.97S FOG

CITY           SKY/WX    TMP DP  RH WIND       PRES   REMARKS
*CAL POLY SLO    N/A     57  57 100 E2          N/A
*LOMPOC        CLOUDY    61  55  82 NW3       29.98R
*PISMO BEACH     N/A     59  56  91 NE1       29.97S
*SANTA YNEZ    FOG       57  55  94 CALM      29.96F VSB 1/4

$$

CAZ037-038-051-231000-
SAN LUIS OBISPO COUNTY INTERIOR AND CUYAMA VALLEY


CITY           SKY/WX    TMP DP  RH WIND       PRES   REMARKS
*CUYAMA          N/A     60  47  63 E1        29.92F
PASO ROBLES    CLEAR     61  53  75 N5        29.98S

$$

CAZ032-033-061-231000-
SOUTHERN DESERTS


CITY           SKY/WX    TMP DP  RH WIND       PRES   REMARKS
BLYTHE         CLEAR     84  54  35 S3        29.88S
IMPERIAL       CLEAR     83  59  44 CALM      29.84R
PALM SPRINGS   CLEAR     82  44  26 NW6       29.90F
THERMAL        CLEAR     70  47  43 SE6       29.84R

$$

ELSEWHERE ACROSS THE WESTERN UNITED STATES AND MEXICO


CITY           SKY/WX    TMP DP  RH WIND       PRES   REMARKS
DENVER, CO     CLOUDY    58  50  75 S14       30.12F
GRAND CANYON,  CLEAR     41  38  89 CALM      30.31F
HONOLULU, HI   PTCLDY    82  66  57 NE10      30.06S
KAHULUI, MAUI  CLEAR     79  68  69 NE12      30.07S
LAKE TAHOE, CA CLEAR     45  37  73 CALM      30.21S
LAS VEGAS, NV  CLEAR     78  39  24 SW9       29.95S
MAMMOTH LAKES, FAIR      45  34  65 CALM      30.30S
MEXICO CITY, M MOCLDY    61  52  72 N2        30.30F
PHOENIX, AZ    CLEAR     84  56  38 E5        29.90S
PORTLAND, OR   CLOUDY    62  59  90 E6        29.91F
RENO, NV       PTCLDY    60  44  55 CALM      30.10S SMOKE
SALT LAKE CITY PTCLDY    61  52  72 SE6       30.11F
SAN DIEGO, CA  MOCLDY    69  63  81 N5        29.97R
SAN FRANCISCO, PTCLDY    65  60  84 W9        29.99R
SAN JOSE, CA   CLEAR     62  58  86 CALM      29.98S
SEATTLE, WA    CLOUDY    62  56  80 E6        29.92S
TIJUANA, MEX   CLEAR     64  61  88 CALM      29.98R

$$

STATION/POSITION TIME  TEMP    WIND        PRES    VSBY  WAVE
                       AIR SEA DIR/SP/G                  HT/PER
                 (UTC) (F)     (DEG/KT/KT) (MB)    (MI)  (FT/S)
POINT ARGUELLO B NOT AVBL
WEST SANTA BARBA 0800   63 64  320/ 17/ 21 1012.6F         5/11
POINT CONCEPTION NOT AVBL
EAST SANTA BARBA 0900   65 66  220/  4     1013.6R
SANTA MONICA BAY 0900   68 72   CALM  /  2 1013.7S         2/14


USA.gov is the U.S. government's official web portal to all federal, state and local government web resources and services.